Regional Weather Roundup
Issued by NWS

Home | Current Version | Previous Version | Graphics & Text | Print | Product List | Glossary Off
Versions: 1 2 3 4 5 6 7 8 9 10 11 12 13 14 15 16 17 18 19 20 21 22 23 24 25 26 27 28 29 30 31 32 33 34 35 36 37 38 39 40 41 42 43 44 45 46 47 48 49 50

000
ASUS43 KMPX 230710
RWRMN
WEATHER ROUNDUP FOR MINNESOTA
NATIONAL WEATHER SERVICE TWIN CITIES/CHANHASSEN MN
200 AM CDT THU OCT 23 2014


NOTE: "FAIR" INDICATES FEW OR NO CLOUDS BELOW 12,000 FEET WITH NO
SIGNIFICANT WEATHER AND/OR OBSTRUCTIONS TO VISIBILITY. N/A MEANS
CURRENT SKY AND/OR WEATHER CONDITIONS ARE NOT AVAILABLE.

MNZ060>063-068>070-230800-
   Twin Cities Metro

CITY           SKY/WX    TMP DP  RH WIND       PRES   REMARKS
TWIN CITIES    LGT RAIN  52  46  80 SE8       30.01S
ST PAUL        LGT RAIN  51  45  79 SE9       30.03S
CRYSTAL        CLOUDY    57  43  59 S8        29.98F
BLAINE         DRIZZLE   55  45  67 SE8       30.00S
LAKEVILLE      CLOUDY    52  45  76 S3        30.01S
EDEN PRAIRIE   LGT RAIN  54  48  80 S9        29.99F
SOUTH ST PAUL  DRIZZLE   52  45  75 CALM      30.02S
LAKE ELMO      DRIZZLE   52  45  76 S10       30.02F
$$
MNZ001>005-007-008-013>017-022>024-027-028-230800-
   Northwest Minnesota

CITY           SKY/WX    TMP DP  RH WIND       PRES   REMARKS
BEMIDJI        CLOUDY    51  49  94 S7        29.90S
HALLOCK        PTCLDY    50  46  87 S8        29.80S
ROSEAU         PTCLDY    52  45  76 S9        29.82S
WARROAD        CLOUDY    52  48  87 S7        29.82F
THIEF RVR FALL CLEAR     48  46  93 SW10      29.86R
CROOKSTON      CLEAR     46  46 100 SW8       29.87R
FOSSTON        FAIR      48  46  93 S10       29.89S
DETROIT LAKES  PTCLDY    50  50 100 SW6       29.92F
MOORHEAD       CLEAR     48  48 100 S5        29.90F
PARK RAPIDS    CLOUDY    52  52 100 SW6       29.92S FOG
MAHNOMEN       FAIR      49  48  96 S10       29.89S
$$
MNZ006-009>011-018-025>026-230800-
   North Central Minnesota

CITY           SKY/WX    TMP DP  RH WIND       PRES   REMARKS
BAUDETTE       CLOUDY    52  46  80 S12       29.85F
FLAG ISLAND    CLOUDY    50  48  93 S9        29.81S
INTL FALLS     LGT RAIN  49  46  90 VRB6      29.90S
WASKISH        CLOUDY    52  48  87 CALM      29.88S
BIG FORK       LGT RAIN  48  46  93 S7        29.92F
LONGVILLE      CLOUDY    50  48  93 S6        29.93S
GRAND RAPIDS   CLOUDY    48  45  87 S14       29.94S
CRANE LAKE     CLOUDY    50  39  66 S6        29.95F
ORR            RAIN      46  43  87 S8        29.92S
COOK           RAIN      46  43  87 S5        29.95S
WALKER         CLOUDY    50  49  98 S5        29.91S FOG
$$
MNZ012-019>021-037-230800-
   Northeast Minnesota

CITY           SKY/WX    TMP DP  RH WIND       PRES   REMARKS
DULUTH         MOCLDY    52  37  56 S13       29.98F
ELY            PTCLDY    48  34  57 S8        29.97S
HIBBING        CLOUDY    48  43  82 S5        29.96S
EVELETH        DRIZZLE   52  39  62 S7        29.97F
DULUTH HARBOR  MOCLDY    54  41  62 S10       30.00S
TWO HARBORS    PTCLDY    45  28  53 CALM      29.99S
SILVER BAY     CLEAR     43  37  81 CALM      29.99F
GRAND MARAIS     N/A     44  40  85 CALM      30.04F
G MARAIS ARPRT PTCLDY    43  36  75 SE5       30.04S
$$
MNZ029>031-032-039>041-046>048-054>057-064-230800-
   West Central Minnesota

CITY           SKY/WX    TMP DP  RH WIND       PRES   REMARKS
FERGUS FALLS   FOG       46  46 100 S6        29.94S VSB 1/2
WHEATON        CLEAR     46  45  93 S7        29.95S
MORRIS         FOG       48  48 100 S6        29.95S VSB<1/4
ALEXANDRIA     MOCLDY    52  52 100 SW7       29.96R FOG
ELBOW LAKE     FOG       47  47 100 S6        29.94S VSB 1/4
WADENA         CLOUDY    52  52 100 SW3       29.93S FOG
GLENWOOD       MOCLDY    54  54 100 SW5       29.96S
APPLETON       CLEAR     52  48  87 SW6       29.96S
BENSON         PTCLDY    52  52 100 SW6       29.97R
ORTONVILLE     CLEAR     48  46  93 S3        29.96S
MADISON        CLEAR     52  48  87 SW7       29.97S FOG
WILLMAR          N/A     57  54  88 W6        29.98R
$$
MNZ033>034-036-042>043-049>051-058-059-230800-
   Central Minnesota

CITY           SKY/WX    TMP DP  RH WIND       PRES   REMARKS
ST CLOUD       LGT RAIN  53  49  86 S7        29.97S FOG
SAUK CENTRE    CLOUDY    52  52  99 CALM      29.95S FOG
PAYNESVILLE    CLOUDY    51  51 100 SE6       29.96S
AITKIN         MIX PCPN  54  46  76 S8        29.93F
PINE RIVER     CLOUDY    50  48  93 S3        29.97S
BRAINERD       CLOUDY    50  48  93 S9        29.95S
STAPLES        CLOUDY    52  52 100 S5        29.94S FOG
LONG PRAIRIE   CLOUDY    52  50  93 S3        29.95S FOG
LITTLE FALLS   CLOUDY    50  48  93 SE5       29.95F
LITCHFIELD     CLOUDY    55  55 100 CALM      29.97S FOG
BUFFALO        RAIN      55  46  72 S6        29.99S
MAPLE LAKE     LGT RAIN  53  51  95 S5        29.99S
$$
MNZ037-044-045-052-053-230800-
   East Central Minnesota

CITY           SKY/WX    TMP DP  RH WIND       PRES   REMARKS
PRINCETON      RAIN      55  46  71 S7        29.98S
MORA           RAIN      50  41  71 S5        30.00R
CAMBRIDGE      DRIZZLE   55  43  62 SE9       29.96F
RUSH CITY      CLOUDY    53  40  62 S8        29.99F
MOOSE LAKE     CLOUDY    52  39  62 S7        29.96F
HINCKLEY       CLOUDY    52  41  66 S7        29.99F
CLOQUET        CLOUDY    52  37  58 S7G18     29.97F
MCGREGOR       CLOUDY    50  45  81 S6        29.96F
$$
MNZ071>073-080-081-089-090-097-098-230800-
   Southwest Minnesota

CITY           SKY/WX    TMP DP  RH WIND       PRES   REMARKS
MONTEVIDEO     PTCLDY    54  52  94 W5        29.98S
GRANITE FALLS  MOCLDY    53  52  97 SW7       30.00R
CANBY          CLEAR     51  50  95 SW12      29.98F
MARSHALL       PTCLDY    52  48  87 W8        29.98S
REDWOOD FALLS  CLOUDY    57  55  93 SW8       29.98S
OLIVIA         CLOUDY    57  54  88 SW6       29.97S
PIPESTONE      CLOUDY    52  52 100 W9        30.01S FOG
WINDOM         CLOUDY    57  55  94 SW7       30.00F FOG
WORTHINGTON    CLOUDY    54  54 100 W7        30.02S
JACKSON        CLOUDY    59  55  88 SW7       30.01S
TRACY          MOCLDY    54  53  95 SW10      29.99S
SLAYTON        MOCLDY    51  51  99 W7        30.01S
$$
MNZ065>067-074>077-082>085-091>093-230800-
   South Central Minnesota

CITY           SKY/WX    TMP DP  RH WIND       PRES   REMARKS
MANKATO        CLOUDY    55  45  67 S9        30.01S
NEW ULM        CLOUDY    55  55 100 SW8       29.99R
ST JAMES       CLOUDY    57  54  88 S10       30.01S
FAIRMONT       CLOUDY    54  48  82 S13       30.01S
GLENCOE        RAIN      54  52  94 S9        29.98S
FARIBAULT      CLOUDY    54  45  71 S9        30.02F
OWATONNA       CLOUDY    54  43  66 S13G20    30.03S
WASECA         CLOUDY    52  39  62 S14       30.04S
ALBERT LEA     CLOUDY    54  43  66 S10       30.04S
$$
MNZ078>079-086>088-094>096-230800-
   Southeast Minnesota

CITY           SKY/WX    TMP DP  RH WIND       PRES   REMARKS
ROCHESTER      LGT RAIN  51  40  65 S15G23    30.07F
STANTON        DRIZZLE   55  43  62 S7        30.01F
DODGE CENTER   DRIZZLE   52  43  71 S15       30.04F
WINONA         CLOUDY    50  43  76 SE6       30.09F
AUSTIN         CLOUDY    52  43  71 S10G16    30.06F
PRESTON        CLOUDY    49  40  71 S10G16    30.09S
$$
ABBREVIATIONS USED IN REMARKS
   TC - TEMPERATURES IN CELSIUS
  WCI - WIND CHILL INDEX
   HX - HEAT INDEX
  VSB - VISIBILITY
$$



USA.gov is the U.S. government's official web portal to all federal, state and local government web resources and services.